Home   Weather   Pomona   Past weeks

Flag for USA Past Weather in Pomona, California, USA — Yesterday and Last 2 Weeks

Now
49 °F

Passing clouds.


Feels Like: 47 °F
Forecast: 49 / 60 °F
Wind: 5 mph from Northwest

Location: Chino Airport

Current Time: Feb 19, 2017 at 4:13:40 am

Latest Report: Feb 19, 2017 at 2:53 am


Visibility: 9 mi

Pressure: 29.79 "Hg

Humidity: 86%

Dew Point: 45 °F

Location of PomonaLocation

Past Weather in Pomona — Graph

°F

Pomona Temperature Yesterday

Maximum temperature yesterday: 60 °F (at 11:53 am)
Minimum temperature yesterday: 51 °F (at 4:09 am)
Average temperature yesterday: 55 °F

High & Low Weather Summary for the Past Weeks

 TemperatureHumidityPressure
High79 °F (Feb 9, 1:53 pm)100% (Feb 9, 4:03 am)30.22 "Hg (Feb 9, 4:03 am)
Low45 °F (Feb 15, 5:53 am)22% (Feb 15, 1:53 pm)29.48 "Hg (Feb 17, 5:53 pm)
Average58 °F81%30.01 "Hg
* Reported Feb 4 2:00 am — Feb 19 2:53 am, Pomona, Weather by CustomWeather, © 2017

Note: Actual official high and low records may vary slightly from our data, if they occured in-between our weather recording intervals... More about our weather records

Advertising

Pomona Weather History for the Previous 24 Hours

Scroll right to see more
 ConditionsComfort  
Time TempWeatherWind HumidityBarometerVisibility
2:53 am
Sun, Feb 19
49 °FPassing clouds.5 mph86%29.79 "Hg9 mi
1:53 am53 °FMostly cloudy.5 mph86%29.76 "Hg8 mi
12:53 am54 °FOvercast.9 mph86%29.76 "Hg7 mi
11:53 pm
Sat, Feb 18
54 °FOvercast.8 mph86%29.75 "Hg7 mi
10:53 pm54 °FPassing clouds.6 mph90%29.74 "Hg7 mi
9:53 pm55 °FOvercast.7 mph87%29.72 "Hg7 mi
8:53 pm55 °FMostly cloudy.7 mph87%29.69 "Hg8 mi
7:53 pm56 °FPartly cloudy.5 mph84%29.67 "Hg10 mi
6:53 pm56 °FPartly cloudy.7 mph87%29.64 "Hg10 mi
5:53 pm56 °FPassing clouds.8 mph84%29.61 "Hg10 mi
4:53 pm58 °FPartly sunny.9 mph78%29.58 "Hg10 mi
3:53 pm60 °FPartly sunny.10 mph72%29.57 "Hg10 mi
2:53 pm59 °FPartly sunny.8 mph78%29.56 "Hg10 mi
1:53 pm59 °FPartly sunny.7 mph75%29.56 "Hg10 mi
12:53 pm60 °FBroken clouds.7 mph72%29.55 "Hg10 mi
11:53 am60 °FBroken clouds.3 mph67%29.57 "Hg10 mi
10:53 am59 °FBroken clouds.No wind69%29.57 "Hg10 mi
9:53 am57 °FCloudy.5 mph74%29.59 "Hg10 mi
9:01 am55 °FBroken clouds.3 mph80%29.59 "Hg6 mi
8:22 am55 °FPartly sunny.3 mph83%29.57 "Hg5 mi
7:53 am53 °FFog.No wind89%29.55 "Hg5 mi
6:53 am52 °FFog.3 mph93%29.55 "Hg3 mi
5:53 am51 °FFog.3 mph92%29.54 "Hg6 mi
4:53 am52 °FOvercast.No wind89%29.52 "Hg7 mi
4:09 am51 °FPassing clouds.No wind92%29.52 "Hg9 mi
Weather by CustomWeather, © 2017

See weather overviewHow to use our weather pages